This is the latest recevied weather packets stored in our database for station/object WP3OF-3. If no packets are shown the sender has not sent any weather packets the latest 10 day(s).
| Time | Temp. | Humidity | Pressure | Rain* | Wind** | Luminosity | Snow |
|---|---|---|---|---|---|---|---|
| 1778076161 | 29.44° C | 58% | 1021.7 hPa | 0 mm | - | - | - |
| 1778075858 | 28.89° C | 59% | 1021.6 hPa | 0 mm | - | - | - |
| 1778075554 | 28.33° C | 61% | 1021.6 hPa | 0 mm | - | - | - |
| 1778075251 | 28.89° C | 59% | 1021.6 hPa | 0 mm | - | - | - |
| 1778074947 | 28.89° C | 60% | 1021.6 hPa | 0 mm | - | - | - |
| 1778074645 | 28.89° C | 62% | 1021.8 hPa | 0 mm | - | - | - |
| 1778074341 | 28.33° C | 58% | 1021.7 hPa | 0 mm | - | - | - |
| 1778074038 | 28.33° C | 61% | 1021.6 hPa | 0 mm | - | - | - |
| 1778073735 | 28.33° C | 62% | 1021.4 hPa | 0 mm | - | - | - |
| 1778073433 | 27.78° C | 67% | 1021.6 hPa | 0 mm | - | - | - |
| 1778073129 | 27.22° C | 72% | 1021.3 hPa | 0 mm | - | - | - |
| 1778072826 | 26.67° C | 75% | 1021.4 hPa | 0 mm | - | - | - |
| 1778072523 | 26.11° C | 75% | 1021.3 hPa | 0 mm | - | - | - |
| 1778072221 | 24.44° C | 78% | 1021.3 hPa | 0 mm | - | - | - |
| 1778071919 | 23.33° C | 84% | 1021.3 hPa | 0 mm | - | - | - |
| 1778071616 | 23.33° C | 86% | 1021.2 hPa | 0 mm | - | - | - |
| 1778071314 | 22.78° C | 87% | 1021.3 hPa | 0 mm | - | - | - |
| 1778071011 | 22.22° C | 89% | 1021.1 hPa | 0 mm | - | - | - |
| 1778070710 | 22.22° C | 90% | 1021.2 hPa | 0 mm | - | - | - |
| 1778070406 | 21.67° C | 91% | 1021.2 hPa | 0 mm | - | - | - |
| 1778070104 | 21.67° C | 93% | 1021.1 hPa | 0 mm | - | - | - |
| 1778069801 | 21.11° C | 94% | 1021 hPa | 0 mm | - | - | - |
| 1778069497 | 21.11° C | 94% | 1021.2 hPa | 0 mm | - | - | - |
| 1778069196 | 21.11° C | 95% | 1020.9 hPa | 0 mm | - | - | - |
| 1778068892 | 20.56° C | 95% | 1020.9 hPa | 0 mm | - | - | - |
* Rain latest hour (hover to see other rain measurements)
** Current wind speed in m/s (hover to see current wind gust speed)